Location: Manchester NH
(43.0000°N, 71.5000°W)
Time: 16:07:54
(UTC-04:00)

ISS - Visible Passes

Search period start: 30 March 2023 00:00
Search period end: 09 April 2023 00:00
Orbit: 413 x 421 km, 51.6° (Epoch: 30 March)

Date Brightness Start Highest point End Pass type
(mag) Time Alt. Az. Time Alt. Az. Time Alt. Az.
30 Mar -3.0 19:58:06 10° NW 20:01:18 40° NNE 20:03:41 16° E visible
30 Mar -1.5 21:35:00 10° WNW 21:36:36 22° W 21:36:36 22° W visible
31 Mar -3.3 20:46:31 10° WNW 20:49:47 52° SW 20:50:25 44° S visible
01 Apr -3.8 19:58:07 10° WNW 20:01:28 89° SSW 20:04:15 14° SE visible
01 Apr -0.8 21:36:33 10° WSW 21:37:10 11° WSW 21:37:10 11° WSW visible
02 Apr -1.6 20:47:02 10° W 20:49:31 19° SW 20:51:01 15° SSW visible
03 Apr -2.3 19:58:08 10° WNW 20:01:11 32° SW 20:04:12 10° SSE visible
05 Apr -0.9 19:58:53 10° WSW 20:00:24 13° SW 20:01:54 10° SSW visible
